[[{"header":{"parameterUnit":"m.s-1","parameterCategory":1,"la1":30.2991,"la2":30.254,"lo1":-89.0895,"lo2":-89.0444,"dy":0.0017,"dx":0.0017,"nx":28,"ny":28,"refTime":"2024-10-14T09:00:00:Z","depth":0,"parameterNumber":2,"parameterNumberName":"U-component_of_WINDS"},"data":[0,0,0,0,0,0,0,0,0,0,0,0,0,0,0,0,0,0,0,0,0,0,0,0,0,0,0,0,0,0,0,0,0,0,0,0,0,0,0,0,0,0,0,0,0,0,0,0,0,0,0,0,0,0,0,0,0,0,3.9828,3.983,0,4.0019,4.0021,4.0023,3.9982,3.9979,3.9975,3.9972,4.0171,4.0179,4.0187,0,0,0,0,0,0,0,0,0,0,0,0,0,3.9432,3.944,3.9828,3.983,3.9833,4.0018,4.0021,4.0023,3.9983,3.9979,3.9974,3.997,4.0168,4.0178,4.0188,0,0,0,0,0,0,0,0,0,0,0,0,0,3.9612,3.9442,3.9828,3.9835,3.9837,4.0018,4.0021,4.0024,3.9984,3.9979,3.9973,3.9968,4.0164,4.0177,4.019,4.0376,0,0,4.0229,4.0235,0,0,0,0,0,0,0,0,3.9602,3.9626,3.9831,3.9835,3.9838,3.9971,3.9954,4.0142,3.9985,3.9928,3.9972,3.9966,4.0109,4.0126,4.0173,4.0385,4.0393,4.023,4.0238,4.0243,4.0247,0,0,0,0,0,0,0,3.9589,3.9618,3.9903,3.9834,3.9838,3.983,3.9849,3.999,4.0046,3.9933,3.993,3.9953,4.0109,4.0161,4.0178,4.0396,4.023,4.0241,4.0249,4.0254,4.077,4.0775,0,0,0,0,0,0,3.9573,3.9608,3.9897,3.9909,3.9704,3.9841,3.9863,3.9934,4.0045,4.0056,3.9958,3.9951,4.0142,4.0163,4.0185,4.0409,4.0243,4.0255,4.0263,4.0764,4.0771,4.0777,0,0,0,0,0,0,3.9565,3.96,3.989,3.9758,3.9794,3.9853,3.9933,3.994,3.9992,4.0063,4.0073,4.0,4.0138,4.0166,4.0328,4.0415,4.0261,4.0273,4.0757,4.0766,4.0774,4.086,0,0,0,0,0,0,3.9554,3.9597,3.9668,3.976,3.9801,4.0029,3.9939,3.9948,4.0014,4.0006,4.0105,4.0117,4.0136,4.0309,4.0341,4.043,4.0283,4.0749,4.0761,4.0771,4.085,4.0871,4.0889,0,0,0,0,0,3.954,3.9685,3.9671,3.9707,3.9891,4.0035,4.0058,4.0077,4.0021,4.0093,4.0139,4.0114,4.0401,4.0326,4.0361,4.0456,4.0744,4.0757,4.077,4.0841,4.0867,4.0888,0,0,0,0,0,0,3.9603,3.9697,3.9683,3.9862,3.994,4.0027,4.0118,4.0104,4.0201,4.019,4.021,4.0233,4.0397,4.0443,4.0358,4.0642,4.0564,4.0586,4.0606,4.0631,4.065,4.0635,4.0294,0,0,0,0,0,3.9637,3.9745,3.9822,3.9973,4.0013,4.0059,4.0122,4.013,4.0212,4.0246,4.0303,4.0385,4.0494,4.0565,4.0669,4.0856,4.0877,4.0939,4.0958,4.0974,4.0992,4.1094,4.1123,4.0821,4.0821,4.0821,0,0,3.971,3.9775,3.9842,3.9987,4.0049,4.0161,4.0087,4.0209,4.0293,4.0264,4.042,4.0465,4.0558,4.0733,4.0813,4.0776,4.108,4.0991,4.1003,4.1013,4.1111,4.1139,4.1165,4.0831,4.0829,4.0827,0,0,3.99,3.996,4.0091,4.0154,4.0248,4.0278,4.0309,4.0399,4.0427,4.0583,4.0564,4.0665,4.0852,4.0918,4.0976,4.1191,4.1172,4.1225,4.1327,4.1426,4.145,4.1471,4.1547,4.1574,4.1242,4.1243,4.1243,0,3.9979,4.0146,4.0161,4.0285,4.0349,4.0328,4.0461,4.0522,4.0646,4.0691,4.0648,4.0881,4.0942,4.1132,4.1184,4.1233,4.127,4.1213,4.1445,4.1466,4.1486,4.1559,4.1588,4.1248,4.1248,4.1247,4.1247,0,4.0238,4.0354,4.0449,4.0567,4.0643,4.0771,4.0807,4.0881,4.0882,4.0917,4.1076,4.1149,4.1266,4.1312,4.1315,4.1503,4.1477,4.144,4.1362,4.1521,4.1589,4.1617,4.1257,4.1255,4.1253,4.1251,0,0,4.0473,4.0597,4.0632,4.0685,4.0786,4.0877,4.1005,4.1118,4.1182,4.1268,4.1375,4.1534,4.1499,4.1565,4.1576,4.1663,4.1828,4.1615,4.1617,4.1651,4.2039,4.2066,4.2098,4.1815,4.1821,4.1825,4.2031,0,4.0671,4.0894,4.0912,4.1113,4.1221,4.1202,4.1313,4.1387,4.1423,4.152,4.156,4.1672,4.1618,4.1658,4.1743,4.1789,4.1906,4.1775,4.1916,4.1921,4.1893,4.2134,4.2164,4.2354,4.2058,4.2062,4.2066,0,4.0932,4.1024,4.1236,4.1322,4.1368,4.1467,4.1573,4.1666,4.175,4.177,4.1844,4.1842,4.1974,4.1891,4.2073,4.1984,4.2043,4.2074,4.2082,4.2096,4.2002,4.2154,4.2416,4.2444,4.2108,4.2105,4.2102,0,4.1082,4.1259,4.1408,4.1454,4.1558,4.1628,4.1675,4.1754,4.1822,4.1915,4.1958,4.2066,4.2125,4.2209,4.2236,4.2174,4.2417,4.2337,4.2438,4.2437,4.2489,4.2486,4.2764,4.2528,4.2528,4.2527,4.2527,0,4.1301,4.1431,4.1476,4.1568,4.1714,4.1733,4.1877,4.192,4.199,4.2091,4.2082,4.2176,4.2207,4.2307,4.233,4.2477,4.2504,4.2524,4.2528,4.2524,4.2522,4.2563,4.255,4.2535,4.2533,4.2532,4.2531,0,4.1492,4.1528,4.1689,4.1774,4.1798,4.1902,4.1975,4.2064,4.2097,4.2224,4.2256,4.2309,4.2427,4.2462,4.2604,4.2619,4.2791,4.2784,4.2762,4.2762,4.286,4.285,4.3174,4.3218,4.2954,4.2957,4.2959,0,4.163,4.1729,4.1824,4.189,4.1939,4.2046,4.2114,4.2137,4.2209,4.2312,4.2389,4.2505,4.2598,4.2787,4.2839,4.2948,4.2943,4.3049,4.2959,4.2952,4.2944,4.2937,4.2947,4.3066,4.3068,4.3071,4.3073,0,4.187,4.1882,4.198,4.2085,4.2166,4.2249,4.233,4.2385,4.242,4.2501,4.262,4.2692,4.2837,4.2952,4.3062,4.3111,4.3098,4.31,4.3129,4.3126,4.3109,4.3119,4.2808,4.3093,4.3091,4.3089,4.3088,4.3087,4.2038,4.2125,4.2206,4.2315,4.2378,4.2453,4.254,4.2584,4.2684,4.2802,4.281,4.2939,4.3021,4.3167,4.3222,4.3324,4.3293,4.3335,4.3346,4.3355,4.3363,4.3093,4.3344,4.3343,4.3343,4.3342,4.3342,0,4.2277,4.2328,4.2428,4.254,4.2626,4.2605,4.2693,4.2767,4.288,4.2957,4.3049,4.3186,4.3297,4.3358,4.3469,4.3539,4.3536,4.3568,4.3563,4.3574,4.3384,4.3348,4.3568,4.3568,4.3568,4.3568,4.3568,4.3568,4.2412,4.2558,4.258,4.2757,4.2807,4.2932,4.2984,4.3053,4.3115,4.3267,4.3359,4.3398,4.3469,4.3585,4.3686,4.3701,4.3743,4.3778,4.3789,4.3611,4.3588,4.3565,4.3531,4.3786,4.3787,4.397,4.3972,4.3973]},{"header":{"parameterUnit":"m.s-1","parameterCategory":1,"la1":30.2991,"la2":30.254,"lo1":-89.0895,"lo2":-89.0444,"dy":0.0017,"dx":0.0017,"nx":28,"ny":28,"refTime":"2024-10-14T09:00:00:Z","depth":0,"parameterNumber":3,"parameterNumberName":"V-component_of_WINDS"},"data":[0,0,0,0,0,0,0,0,0,0,0,0,0,0,0,0,0,0,0,0,0,0,0,0,0,0,0,0,0,0,0,0,0,0,0,0,0,0,0,0,0,0,0,0,0,0,0,0,0,0,0,0,0,0,0,0,0,0,0.0619,0.0619,0,0.0645,0.0645,0.0645,0.0642,0.0642,0.0641,0.0641,0.0669,0.067,0.0671,0,0,0,0,0,0,0,0,0,0,0,0,0,0.0567,0.0568,0.0619,0.0619,0.0619,0.0645,0.0645,0.0646,0.0642,0.0642,0.0641,0.0641,0.0669,0.067,0.0671,0,0,0,0,0,0,0,0,0,0,0,0,0,0.0591,0.0568,0.0619,0.0621,0.0621,0.0645,0.0645,0.0646,0.0642,0.0642,0.0641,0.064,0.0668,0.067,0.0672,0.0695,0,0,0.0677,0.0678,0,0,0,0,0,0,0,0,0.0589,0.0593,0.062,0.0621,0.0621,0.0639,0.0637,0.0662,0.0642,0.0634,0.0641,0.064,0.066,0.0662,0.0669,0.0697,0.0698,0.0677,0.0678,0.0679,0.0679,0,0,0,0,0,0,0,0.0588,0.0592,0.0629,0.062,0.0621,0.0621,0.0623,0.0642,0.065,0.0635,0.0635,0.0638,0.066,0.0667,0.0669,0.0698,0.0677,0.0678,0.068,0.068,0.0747,0.0747,0,0,0,0,0,0,0.0585,0.059,0.0628,0.063,0.0603,0.0622,0.0625,0.0634,0.065,0.0652,0.0638,0.0637,0.0664,0.0667,0.067,0.0699,0.0679,0.068,0.0681,0.0746,0.0747,0.0748,0,0,0,0,0,0,0.0584,0.0589,0.0627,0.061,0.0615,0.0624,0.0634,0.0635,0.0642,0.0653,0.0654,0.0644,0.0664,0.0668,0.0689,0.07,0.0681,0.0683,0.0745,0.0746,0.0747,0.0757,0,0,0,0,0,0,0.0583,0.0588,0.0597,0.061,0.0616,0.0645,0.0635,0.0636,0.0645,0.0644,0.0658,0.066,0.0664,0.0686,0.0691,0.0702,0.0684,0.0744,0.0746,0.0747,0.0756,0.0758,0.076,0,0,0,0,0,0.0581,0.06,0.0598,0.0603,0.0627,0.0646,0.0649,0.0653,0.0646,0.0655,0.0662,0.066,0.0698,0.0688,0.0693,0.0705,0.0744,0.0745,0.0747,0.0755,0.0758,0.076,0,0,0,0,0,0,0.0589,0.0601,0.06,0.0623,0.0633,0.0645,0.0657,0.0656,0.0669,0.0668,0.0672,0.0675,0.0696,0.0703,0.0692,0.0729,0.072,0.0722,0.0724,0.0727,0.0729,0.0728,0.0686,0,0,0,0,0,0.0593,0.0607,0.0617,0.0637,0.0642,0.0648,0.0657,0.0658,0.067,0.0674,0.0683,0.0694,0.0708,0.0718,0.0732,0.0756,0.0759,0.0767,0.0769,0.0771,0.0773,0.0786,0.079,0.0753,0.0753,0.0753,0,0,0.0602,0.0611,0.0619,0.0638,0.0647,0.0661,0.0652,0.0668,0.0679,0.0677,0.0697,0.0704,0.0716,0.0739,0.075,0.0745,0.0784,0.0773,0.0774,0.0776,0.0789,0.0792,0.0795,0.0754,0.0754,0.0754,0,0,0.0626,0.0634,0.0651,0.0659,0.0672,0.0676,0.068,0.0692,0.0696,0.0716,0.0715,0.0728,0.0753,0.0762,0.077,0.0796,0.0795,0.0801,0.0813,0.0826,0.0829,0.0831,0.0841,0.0844,0.0803,0.0803,0.0803,0,0.0637,0.0658,0.066,0.0676,0.0684,0.0682,0.0699,0.0707,0.0724,0.073,0.0724,0.0755,0.0764,0.0788,0.0795,0.0801,0.0806,0.0799,0.0828,0.0831,0.0833,0.0842,0.0846,0.0804,0.0803,0.0803,0.0803,0,0.067,0.0685,0.0697,0.0712,0.0722,0.0738,0.0743,0.0753,0.0753,0.0758,0.0778,0.0788,0.0804,0.081,0.0811,0.0835,0.0831,0.0827,0.0818,0.0837,0.0846,0.085,0.0804,0.0804,0.0804,0.0804,0,0,0.0701,0.0716,0.0721,0.0727,0.074,0.0752,0.0768,0.0783,0.0791,0.0802,0.0816,0.0837,0.0832,0.0841,0.0843,0.0854,0.0875,0.0848,0.0849,0.0853,0.0901,0.0905,0.0909,0.0873,0.0874,0.0874,0.09,0,0.0727,0.0755,0.0757,0.0783,0.0796,0.0794,0.0808,0.0817,0.0822,0.0834,0.084,0.0854,0.0847,0.0853,0.0864,0.087,0.0884,0.0868,0.0887,0.0887,0.0884,0.0914,0.0918,0.0942,0.0904,0.0904,0.0905,0,0.0761,0.0772,0.0799,0.0809,0.0815,0.0828,0.0841,0.0853,0.0864,0.0866,0.0876,0.0876,0.0892,0.0882,0.0905,0.0894,0.0902,0.0906,0.0907,0.0909,0.0898,0.0917,0.0949,0.0953,0.091,0.091,0.0909,0,0.0781,0.0803,0.0822,0.0827,0.084,0.0849,0.0855,0.0865,0.0873,0.0885,0.089,0.0904,0.0912,0.0922,0.0926,0.0918,0.0949,0.0939,0.0952,0.0952,0.0959,0.0959,0.0994,0.0963,0.0963,0.0963,0.0963,0,0.081,0.0826,0.0831,0.0843,0.0861,0.0863,0.0881,0.0886,0.0895,0.0908,0.0906,0.0918,0.0922,0.0935,0.0938,0.0957,0.096,0.0963,0.0963,0.0963,0.0963,0.0969,0.0967,0.0964,0.0964,0.0964,0.0964,0,0.0836,0.0839,0.086,0.0869,0.0872,0.0885,0.0894,0.0905,0.0909,0.0925,0.0929,0.0936,0.095,0.0955,0.0973,0.0975,0.0997,0.0996,0.0993,0.0993,0.1006,0.1005,0.1046,0.1052,0.1017,0.1018,0.1018,0,0.0854,0.0867,0.0877,0.0886,0.0892,0.0905,0.0913,0.0915,0.0924,0.0937,0.0947,0.0961,0.0973,0.0997,0.1003,0.1017,0.1016,0.103,0.1018,0.1017,0.1017,0.1016,0.1017,0.1032,0.1032,0.1033,0.1033,0,0.0886,0.0887,0.0899,0.0912,0.0922,0.0932,0.0942,0.0948,0.0952,0.0962,0.0977,0.0986,0.1004,0.1018,0.1032,0.1038,0.1036,0.1036,0.104,0.104,0.1038,0.104,0.0999,0.1036,0.1035,0.1035,0.1035,0.1035,0.0909,0.092,0.0929,0.0943,0.095,0.0959,0.097,0.0975,0.0987,0.1001,0.1002,0.1018,0.1028,0.1046,0.1052,0.1065,0.1061,0.1067,0.1068,0.1069,0.107,0.1036,0.1068,0.1067,0.1067,0.1067,0.1067,0,0.0942,0.0947,0.0959,0.0973,0.0983,0.098,0.099,0.0999,0.1013,0.1022,0.1033,0.105,0.1064,0.1071,0.1084,0.1093,0.1093,0.1097,0.1096,0.1098,0.1073,0.1069,0.1097,0.1097,0.1097,0.1097,0.1097,0.1097,0.096,0.0978,0.098,0.1002,0.1007,0.1023,0.1029,0.1037,0.1044,0.1063,0.1074,0.1078,0.1086,0.11,0.1113,0.1115,0.112,0.1124,0.1126,0.1103,0.11,0.1097,0.1093,0.1125,0.1125,0.1149,0.1149,0.115]}]]